Language: 


Des rapports , des résumés tant et plus, au choix de chacun....


Données statistiques de la station
Quotidien Rapport Mars 31, 2017 Unités:  Anglais    Métrique   les deux
« Précédent Jour
Suivant Jour »
Quotidien Hebdomadaire Mensuel Annuel Actuel
  Haut: Bas: Moyen:
Température: 68.4 °F 47.7 °F 57.7 °F
Pt de rosée: 53.4 °F 43.3 °F 47.3 °F
Humidité: 90 % 49 % 69 %
Vitesse du vent: 14.5 mph 0 mph 4.5 mph
Rafales: 19.9 mph - -
Vent:- - SW
Pression: 30 in 29.8 in -
Précipitation: 0 in    
Historical Graphs
 
 
Données statistiques pour Mars 31, 2017
Heure Température Point de rosée Pression Vent Vitesse du vent Refales Humidité Pluie (taux horaire)
00:00 59.5 °F 46.6 °F 30 in Calm   3.6 mph 62 % 0 in
00:06 58.5 °F 46.2 °F 30 in Calm   3.6 mph 64 % 0 in
00:11 58.5 °F 46.2 °F 30 in Calm   2.9 mph 64 % 0 in
00:16 57.9 °F 46.2 °F 30 in SE 2.7 mph 2.9 mph 65 % 0 in
00:21 57.6 °F 45.9 °F 30 in ESE 2.9 mph 3.6 mph 65 % 0 in
00:26 57.6 °F 45.9 °F 30 in Calm   3.6 mph 65 % 0 in
00:27 57.6 °F 45.9 °F 30 in Calm   3.6 mph 65 % 0 in
00:32 57.6 °F 45.9 °F 30 in SSE 2.9 mph 3.6 mph 65 % 0 in
00:37 57.6 °F 45.9 °F 30 in SE 4.3 mph 5.6 mph 65 % 0 in
00:42 57.6 °F 45.9 °F 30 in SE 4 mph 5.6 mph 65 % 0 in
00:47 57.6 °F 45.9 °F 30 in SSE 4.3 mph 4.9 mph 65 % 0 in
00:52 57.6 °F 45.9 °F 30 in SSE 4.3 mph 6.5 mph 65 % 0 in
00:57 57.6 °F 45.9 °F 30 in Calm   6.5 mph 65 % 0 in
01:02 57.6 °F 45.9 °F 30 in SE 4.3 mph 5.8 mph 65 % 0 in
01:07 57.6 °F 45.9 °F 30 in SSE 3.8 mph 5.8 mph 65 % 0 in
01:12 57.6 °F 45.9 °F 30 in SSE 2.7 mph 6.5 mph 65 % 0 in
01:17 57.6 °F 45.9 °F 30 in SSE 4 mph 7.4 mph 65 % 0 in
01:22 57.6 °F 45.9 °F 30 in South 4.3 mph 7.4 mph 65 % 0 in
01:27 57.6 °F 45.9 °F 29.9 in SSE 2 mph 6.5 mph 65 % 0 in
01:32 57.6 °F 45.9 °F 29.9 in SSE 4.3 mph 7.2 mph 65 % 0 in
01:37 57.6 °F 45.9 °F 29.9 in SSE 5.4 mph 8.5 mph 65 % 0 in
01:42 57.6 °F 45.9 °F 30 in SSE 4.3 mph 8.5 mph 65 % 0 in
01:47 57.6 °F 45.9 °F 30 in SSE 6.5 mph 7.2 mph 65 % 0 in
01:52 57.6 °F 45.9 °F 30 in SSE 0.9 mph 7.2 mph 65 % 0 in
01:57 57.6 °F 45.9 °F 30 in Calm   6 mph 65 % 0 in
02:02 57.6 °F 45.9 °F 30 in SSE 4 mph 6.3 mph 65 % 0 in
02:07 57.6 °F 45.9 °F 30 in South 4.3 mph 7.8 mph 65 % 0 in
02:12 57.6 °F 45.9 °F 30 in SSW 2.5 mph 7.8 mph 65 % 0 in
02:14 57.6 °F 45.9 °F 30 in Calm   7.8 mph 65 % 0 in
02:19 57.6 °F 45.9 °F 30 in SSE 8.1 mph 8.1 mph 65 % 0 in
02:24 57.6 °F 45.9 °F 30 in South 3.6 mph 8.1 mph 65 % 0 in
02:29 57.6 °F 45.9 °F 30 in SSE 3.4 mph 8.7 mph 65 % 0 in
02:34 57.6 °F 45.9 °F 30 in SSE 6.5 mph 8.7 mph 65 % 0 in
02:39 57.6 °F 45.9 °F 29.9 in South 2.5 mph 7.4 mph 65 % 0 in
02:44 57.6 °F 45.9 °F 29.9 in South 4.9 mph 7.4 mph 65 % 0 in
02:49 57.6 °F 45.9 °F 29.9 in SSE 3.1 mph 7.2 mph 65 % 0 in
02:54 57.6 °F 45.9 °F 29.9 in SSE 6 mph 8.1 mph 65 % 0 in
02:59 57.6 °F 45.9 °F 29.9 in Calm   8.1 mph 65 % 0 in
03:04 57.6 °F 45.9 °F 29.9 in SSW 1.1 mph 6.5 mph 65 % 0 in
03:09 57.6 °F 45.9 °F 29.9 in South 0.9 mph 6.5 mph 65 % 0 in
03:14 57.6 °F 45.9 °F 29.9 in South 4.3 mph 6.5 mph 65 % 0 in
03:19 57.6 °F 45.9 °F 29.9 in South 3.1 mph 6.5 mph 65 % 0 in
03:24 57.6 °F 45.9 °F 29.9 in SSE 2.7 mph 6.5 mph 65 % 0 in
03:29 57.6 °F 45.9 °F 29.9 in South 3.8 mph 8.1 mph 65 % 0 in
03:34 57.6 °F 45.9 °F 29.9 in Calm   8.1 mph 65 % 0 in
03:39 57.6 °F 45.9 °F 29.9 in Calm   7.4 mph 65 % 0 in
03:44 57.6 °F 45.9 °F 29.9 in SSW 4.3 mph 7.8 mph 65 % 0 in
03:49 57.6 °F 45.9 °F 29.9 in SSE 2 mph 7.8 mph 65 % 0 in
03:54 57.6 °F 45.9 °F 29.9 in SSE 5.6 mph 6.5 mph 65 % 0 in
03:59 57.6 °F 45.9 °F 29.9 in Calm   6.5 mph 65 % 0 in
04:04 57.6 °F 45.9 °F 29.9 in SSE 4 mph 6.3 mph 65 % 0 in
04:09 57.6 °F 45.9 °F 29.9 in South 1.1 mph 7.2 mph 65 % 0 in
04:14 57.6 °F 45.9 °F 29.9 in SSW 1.1 mph 7.2 mph 65 % 0 in
04:19 57.6 °F 45.9 °F 29.9 in SSE 3.4 mph 5.6 mph 65 % 0 in
04:24 57.6 °F 45.9 °F 29.9 in South 2 mph 5.4 mph 65 % 0 in
04:29 57.6 °F 45.9 °F 29.9 in South 4 mph 4.7 mph 65 % 0 in
04:34 57.6 °F 45.9 °F 29.9 in South 4.3 mph 4.3 mph 65 % 0 in
04:39 55.2 °F 45.3 °F 29.9 in SSE 0.9 mph 4.7 mph 69 % 0 in
04:44 55.2 °F 45.3 °F 29.9 in Calm   5.6 mph 69 % 0 in
04:49 55.2 °F 45.3 °F 29.9 in Calm   5.6 mph 69 % 0 in
04:54 55.2 °F 45.3 °F 29.9 in Calm   4.3 mph 69 % 0 in
04:59 54.7 °F 45 °F 29.9 in South 4 mph 4.3 mph 70 % 0 in
05:04 54.7 °F 45 °F 29.9 in Calm   5.6 mph 70 % 0 in
05:09 54.7 °F 45 °F 29.9 in Calm   5.6 mph 70 % 0 in
05:14 54.3 °F 45.1 °F 29.9 in Calm   5.6 mph 71 % 0 in
05:19 54.3 °F 45.1 °F 29.9 in SSE 1.6 mph 4.9 mph 71 % 0 in
05:24 54.3 °F 45.1 °F 29.9 in Calm   7.8 mph 71 % 0 in
05:29 54.3 °F 45.1 °F 29.9 in Calm   7.8 mph 71 % 0 in
05:34 54.3 °F 45.1 °F 29.9 in Calm   4.3 mph 71 % 0 in
05:39 54.3 °F 45.1 °F 29.9 in South 1.3 mph 4.3 mph 71 % 0 in
05:44 53.8 °F 44.4 °F 29.9 in Calm   4.9 mph 71 % 0 in
05:49 53.8 °F 44.4 °F 29.9 in Calm   4.9 mph 71 % 0 in
05:54 53.8 °F 44.4 °F 29.9 in Calm   4.9 mph 71 % 0 in
05:59 53.8 °F 45 °F 29.9 in Calm   5.6 mph 72 % 0 in
06:04 53.8 °F 45 °F 29.9 in SE 4.9 mph 5.6 mph 72 % 0 in
06:09 53.8 °F 45 °F 29.9 in SSE 3.8 mph 5.8 mph 72 % 0 in
06:14 53.8 °F 45 °F 29.9 in Calm   5.8 mph 72 % 0 in
06:19 53.8 °F 45 °F 29.9 in SE 3.6 mph 4.7 mph 72 % 0 in
06:24 53.8 °F 45 °F 29.9 in Calm   4 mph 72 % 0 in
06:29 53.8 °F 45 °F 29.9 in SSE 1.6 mph 5.8 mph 72 % 0 in
06:34 53.8 °F 45 °F 29.9 in South 1.1 mph 6.9 mph 72 % 0 in
06:39 53.8 °F 45 °F 29.9 in SSE 2.9 mph 6.9 mph 72 % 0 in
06:44 53.8 °F 45 °F 29.9 in SSE 6 mph 6 mph 72 % 0 in
06:49 53.8 °F 45 °F 29.9 in SSE 3.4 mph 6 mph 72 % 0 in
06:54 53.2 °F 45 °F 29.9 in Calm   5.8 mph 73 % 0 in
06:59 53.2 °F 45 °F 29.9 in Calm   6 mph 73 % 0 in
07:04 53.2 °F 45 °F 29.9 in South 6.3 mph 6.3 mph 73 % 0 in
07:05 53.2 °F 45 °F 29.9 in South 4.9 mph 6.3 mph 73 % 0 in
07:10 53.2 °F 45 °F 29.9 in SSE 1.6 mph 6.3 mph 73 % 0 in
07:16 53.1 °F 44.6 °F 29.9 in Calm   5.8 mph 73 % 0 in
07:21 53.1 °F 44.6 °F 29.9 in SSE 4 mph 6.5 mph 73 % 0 in
07:26 53.1 °F 44.6 °F 29.9 in Calm   6.5 mph 73 % 0 in
07:31 53.1 °F 44.6 °F 29.9 in SSE 1.1 mph 4.9 mph 73 % 0 in
07:36 53.1 °F 44.6 °F 29.9 in Calm   4.9 mph 73 % 0 in
07:41 52.3 °F 43.9 °F 29.9 in Calm   2.9 mph 73 % 0 in
07:46 52.2 °F 44.1 °F 29.9 in South 4.7 mph 5.6 mph 74 % 0 in
07:51 52.3 °F 44.2 °F 29.9 in SSE 3.6 mph 5.6 mph 74 % 0 in
08:01 52.5 °F 44.6 °F 29.9 in SSE 2 mph 4.9 mph 74 % 0 in
08:06 52.9 °F 44.8 °F 29.9 in SSE 5.4 mph 5.4 mph 74 % 0 in
08:11 53.1 °F 45 °F 29.8 in South 2.9 mph 6.5 mph 74 % 0 in
08:16 53.2 °F 45.3 °F 29.8 in Calm   6.5 mph 74 % 0 in
08:21 53.8 °F 45.7 °F 29.8 in SSW 6.3 mph 8.1 mph 74 % 0 in
08:26 54 °F 45.9 °F 29.8 in WSW 5.8 mph 8.5 mph 74 % 0 in
08:31 54.3 °F 46.2 °F 29.8 in WSW 4 mph 8.5 mph 74 % 0 in
08:36 54.9 °F 46.6 °F 29.8 in Calm   8.5 mph 74 % 0 in
08:41 55 °F 46.6 °F 29.9 in SSW 4.7 mph 7.2 mph 73 % 0 in
08:46 55.2 °F 46.8 °F 29.9 in SSW 4 mph 6.3 mph 73 % 0 in
08:51 55.6 °F 46.6 °F 29.9 in SSW 6.3 mph 7.2 mph 72 % 0 in
08:56 55.8 °F 46.9 °F 29.9 in SW 4 mph 7.2 mph 72 % 0 in
09:01 56.3 °F 47.5 °F 29.9 in South 4.3 mph 6 mph 72 % 0 in
09:06 56.7 °F 47.8 °F 29.9 in South 3.6 mph 5.8 mph 72 % 0 in
09:11 57.4 °F 48 °F 29.9 in Calm   6.3 mph 71 % 0 in
09:16 57.9 °F 48.6 °F 29.9 in South 7.2 mph 7.2 mph 71 % 0 in
09:21 58.5 °F 48.4 °F 29.9 in Calm   7.2 mph 69 % 0 in
09:27 59 °F 48.7 °F 29.9 in South 7.4 mph 8.7 mph 69 % 0 in
09:32 59 °F 48.4 °F 29.9 in SSE 5.8 mph 8.7 mph 68 % 0 in
09:37 58.8 °F 47.5 °F 29.9 in South 6.5 mph 8.7 mph 66 % 0 in
09:38 58.8 °F 47.5 °F 29.9 in SSW 6.3 mph 8.7 mph 66 % 0 in
09:43 58.8 °F 47.5 °F 29.9 in SSW 8.1 mph 8.1 mph 66 % 0 in
09:48 58.8 °F 47.5 °F 29.9 in South 4.9 mph 9.8 mph 66 % 0 in
09:53 58.8 °F 47.1 °F 29.9 in SSE 4 mph 9.8 mph 65 % 0 in
09:58 58.6 °F 47.3 °F 29.9 in South 7.8 mph 8.5 mph 66 % 0 in
10:03 58.8 °F 47.1 °F 29.9 in SSW 3.4 mph 8.5 mph 65 % 0 in
10:08 58.8 °F 47.1 °F 29.9 in South 6 mph 9.8 mph 65 % 0 in
10:13 59 °F 47.1 °F 29.9 in South 3.6 mph 9.8 mph 65 % 0 in
10:18 59 °F 47.1 °F 29.9 in South 6.5 mph 10.1 mph 65 % 0 in
10:23 59.7 °F 47.5 °F 29.9 in South 8.1 mph 10.7 mph 64 % 0 in
10:28 60.1 °F 48.2 °F 29.9 in South 8.1 mph 10.7 mph 65 % 0 in
10:33 60.8 °F 48.6 °F 29.9 in SSW 6.5 mph 10.5 mph 64 % 0 in
10:38 61.2 °F 48 °F 29.9 in South 6 mph 10.5 mph 62 % 0 in
10:43 61.5 °F 48.9 °F 29.9 in South 8.1 mph 11 mph 63 % 0 in
10:48 62.2 °F 48 °F 29.9 in SSE 7.6 mph 11 mph 60 % 0 in
10:53 62.4 °F 48 °F 29.9 in SSW 9.6 mph 11 mph 59 % 0 in
10:58 62.8 °F 47.7 °F 29.9 in SSW 6.3 mph 12.1 mph 58 % 0 in
11:03 62.8 °F 47.1 °F 29.9 in WSW 4.7 mph 14.8 mph 57 % 0 in
11:08 63 °F 48 °F 29.9 in SSW 6.5 mph 14.8 mph 58 % 0 in
11:13 63.7 °F 48 °F 29.9 in WSW 10.1 mph 12.3 mph 57 % 0 in
11:18 63.9 °F 47.8 °F 29.9 in SW 6.9 mph 10.3 mph 56 % 0 in
11:23 64.6 °F 48.9 °F 29.9 in WSW 7.8 mph 10.3 mph 57 % 0 in
11:28 64.8 °F 47.8 °F 29.9 in SW 12.8 mph 13.2 mph 54 % 0 in
11:33 65.3 °F 48.4 °F 29.9 in WSW 7.2 mph 13.2 mph 54 % 0 in
11:38 65.5 °F 47.5 °F 29.9 in South 6.5 mph 12.8 mph 52 % 0 in
11:43 66 °F 47.8 °F 29.9 in WSW 10.1 mph 12.1 mph 52 % 0 in
11:48 66.4 °F 47.7 °F 29.9 in SSW 6.3 mph 14.5 mph 51 % 0 in
11:53 66.7 °F 48 °F 29.9 in SW 8.1 mph 14.5 mph 51 % 0 in
11:58 67.1 °F 47.8 °F 29.9 in SW 11 mph 14.3 mph 50 % 0 in
12:03 66.7 °F 47.5 °F 29.9 in WSW 8.5 mph 14.3 mph 50 % 0 in
12:08 67.6 °F 48.4 °F 29.9 in WSW 10.3 mph 13.2 mph 50 % 0 in
12:13 68.4 °F 48.9 °F 29.9 in WSW 8.1 mph 13.2 mph 50 % 0 in
12:18 66.9 °F 47.1 °F 29.9 in WSW 13 mph 16.3 mph 49 % 0 in
12:23 66.2 °F 46.9 °F 29.9 in WSW 10.7 mph 16.3 mph 50 % 0 in
12:28 66.4 °F 47.7 °F 29.9 in West 8.7 mph 16.8 mph 51 % 0 in
12:33 66.2 °F 47.7 °F 29.9 in WSW 7.6 mph 16.8 mph 51 % 0 in
12:39 66.2 °F 48 °F 29.9 in SW 10.7 mph 16.1 mph 52 % 0 in
12:49 64.9 °F 47.5 °F 29.9 in WSW 10.7 mph 18.6 mph 53 % 0 in
12:54 64.2 °F 47.3 °F 29.9 in WSW 10.5 mph 18.6 mph 54 % 0 in
12:59 63.7 °F 47.7 °F 29.9 in West 7.8 mph 15.4 mph 56 % 0 in
13:04 62.8 °F 48.9 °F 29.9 in WSW 6 mph 13 mph 61 % 0 in
13:09 62.1 °F 49.6 °F 29.9 in WSW 7.8 mph 12.1 mph 64 % 0 in
13:14 61.5 °F 50.5 °F 29.9 in West 7.8 mph 12.3 mph 67 % 0 in
13:19 61.5 °F 51.8 °F 29.9 in SSW 9.2 mph 12.8 mph 70 % 0 in
13:24 61.3 °F 51.1 °F 29.9 in WSW 7.8 mph 12.8 mph 69 % 0 in
13:29 61.3 °F 51.4 °F 29.9 in WSW 12.1 mph 13 mph 70 % 0 in
13:34 61.2 °F 51.3 °F 29.9 in West 9.8 mph 14.1 mph 70 % 0 in
13:39 61.3 °F 51.4 °F 29.9 in WSW 8.9 mph 14.1 mph 70 % 0 in
13:44 61.5 °F 52 °F 29.9 in WSW 8.7 mph 13.2 mph 71 % 0 in
13:49 62.1 °F 52.2 °F 29.9 in WSW 7.4 mph 12.5 mph 70 % 0 in
13:54 62.2 °F 52.3 °F 29.9 in SW 6.7 mph 11 mph 70 % 0 in
13:59 62.4 °F 51.8 °F 29.9 in WSW 9.8 mph 10.1 mph 68 % 0 in
14:04 62.2 °F 51.1 °F 29.9 in West 8.7 mph 10.5 mph 67 % 0 in
14:09 62.1 °F 50.9 °F 29.9 in West 7.8 mph 10.7 mph 67 % 0 in
14:14 61.9 °F 51.1 °F 29.9 in West 10.7 mph 13 mph 68 % 0 in
14:19 61.9 °F 51.1 °F 29.9 in West 10.1 mph 16.6 mph 68 % 0 in
14:24 62.1 °F 51.6 °F 29.9 in West 10.5 mph 16.6 mph 69 % 0 in
14:29 61.9 °F 52 °F 29.9 in West 12.8 mph 12.8 mph 70 % 0 in
14:34 61.5 °F 51.6 °F 29.9 in WSW 10.3 mph 12.8 mph 70 % 0 in
14:35 61.3 °F 51.1 °F 29.9 in WSW 10.7 mph 12.8 mph 69 % 0 in
14:40 61 °F 51.1 °F 29.9 in WSW 12.1 mph 12.8 mph 70 % 0 in
14:45 60.8 °F 50.9 °F 29.9 in West 10.1 mph 14.8 mph 70 % 0 in
14:50 60.6 °F 51.1 °F 29.9 in WSW 14.5 mph 16.3 mph 71 % 0 in
14:55 61.3 °F 51.8 °F 29.9 in WSW 8.5 mph 16.3 mph 71 % 0 in
15:00 62.1 °F 52.2 °F 29.9 in WSW 11 mph 12.8 mph 70 % 0 in
15:05 62.2 °F 52.3 °F 29.9 in WSW 9.8 mph 13 mph 70 % 0 in
15:10 63.9 °F 53.4 °F 29.9 in WSW 10.5 mph 13 mph 69 % 0 in
15:15 63.7 °F 52.9 °F 29.9 in WNW 8.7 mph 12.5 mph 68 % 0 in
15:20 63.1 °F 52.2 °F 29.9 in WSW 10.1 mph 12.5 mph 67 % 0 in
15:25 63 °F 52 °F 29.9 in WSW 6 mph 12.3 mph 67 % 0 in
15:30 62.8 °F 51.3 °F 29.9 in WSW 10.1 mph 10.1 mph 66 % 0 in
15:35 62.1 °F 50.9 °F 29.9 in West 8.5 mph 10.3 mph 67 % 0 in
15:40 61.5 °F 50.4 °F 29.9 in WSW 6.5 mph 10.3 mph 67 % 0 in
15:45 61.3 °F 50.5 °F 29.9 in West 9.8 mph 12.1 mph 68 % 0 in
15:50 61.3 °F 50.5 °F 29.9 in WSW 8.1 mph 12.1 mph 68 % 0 in
15:55 61.3 °F 51.1 °F 29.9 in West 10.5 mph 11 mph 69 % 0 in
16:00 61.3 °F 51.1 °F 29.9 in WNW 12.1 mph 12.1 mph 69 % 0 in
16:05 61.9 °F 51.4 °F 29.9 in WSW 7.8 mph 12.3 mph 69 % 0 in
16:10 62.2 °F 52 °F 29.9 in West 9.8 mph 12.3 mph 69 % 0 in
16:15 62.2 °F 52 °F 29.9 in WSW 6 mph 12.3 mph 69 % 0 in
16:20 62.1 °F 51.3 °F 29.9 in WSW 6.3 mph 12.3 mph 68 % 0 in
16:26 61.5 °F 51.4 °F 29.9 in SW 10.7 mph 13.9 mph 69 % 0 in
16:31 61.3 °F 51.1 °F 29.9 in WSW 10.7 mph 13.9 mph 69 % 0 in
16:36 61.5 °F 51.4 °F 29.9 in West 9.6 mph 12.3 mph 69 % 0 in
16:41 62.1 °F 51.6 °F 29.9 in WSW 7.4 mph 11 mph 69 % 0 in
16:46 62.1 °F 52.2 °F 29.9 in West 9.6 mph 11 mph 70 % 0 in
16:51 61.3 °F 51.4 °F 29.9 in West 7.6 mph 11 mph 70 % 0 in
16:56 61.3 °F 51.4 °F 29.9 in WSW 9.4 mph 10.7 mph 70 % 0 in
17:01 61.5 °F 52.2 °F 29.9 in West 4.7 mph 10.3 mph 71 % 0 in
17:06 63.1 °F 53.2 °F 29.9 in West 8.7 mph 10.5 mph 70 % 0 in
17:11 63.9 °F 53.4 °F 29.9 in West 5.4 mph 10.5 mph 69 % 0 in
17:16 63.7 °F 52.9 °F 29.9 in West 7.4 mph 10.5 mph 68 % 0 in
17:21 63.9 °F 52.5 °F 29.9 in WNW 7.6 mph 11.4 mph 67 % 0 in
17:26 64.2 °F 53.1 °F 29.9 in West 8.5 mph 11.4 mph 67 % 0 in
17:31 64.2 °F 52.7 °F 29.9 in West 7.6 mph 10.3 mph 66 % 0 in
17:36 64.6 °F 52.3 °F 29.9 in West 8.7 mph 10.1 mph 65 % 0 in
17:41 64.6 °F 52.5 °F 29.9 in West 7.8 mph 11 mph 65 % 0 in
17:46 64.8 °F 52.9 °F 29.9 in West 8.1 mph 11 mph 65 % 0 in
17:51 64.6 °F 52 °F 29.9 in WSW 8.5 mph 10.3 mph 64 % 0 in
17:56 63 °F 50.2 °F 29.9 in West 8.5 mph 13.2 mph 63 % 0 in
18:01 62.2 °F 50 °F 29.9 in West 8.5 mph 13.2 mph 64 % 0 in
18:06 61.5 °F 49.6 °F 29.9 in WSW 11 mph 11.4 mph 65 % 0 in
18:11 61.2 °F 49.3 °F 29.9 in WSW 8.1 mph 11.4 mph 65 % 0 in
18:16 61 °F 49.1 °F 29.9 in West 8.7 mph 10.7 mph 65 % 0 in
18:21 60.8 °F 49.3 °F 29.9 in West 9.2 mph 15.2 mph 66 % 0 in
18:26 60.8 °F 49.3 °F 29.9 in NNW 5.4 mph 15.2 mph 66 % 0 in
18:31 60.8 °F 49.3 °F 29.9 in West 10.5 mph 13.2 mph 66 % 0 in
18:36 61 °F 49.1 °F 29.9 in West 4.9 mph 10.5 mph 65 % 0 in
18:41 60.8 °F 48.9 °F 29.9 in WSW 7.2 mph 10.5 mph 65 % 0 in
18:46 60.4 °F 48.2 °F 29.9 in West 10.1 mph 10.5 mph 64 % 0 in
18:51 60.4 °F 48.6 °F 29.9 in West 10.1 mph 10.5 mph 65 % 0 in
18:52 60.4 °F 48.6 °F 29.9 in West 7.6 mph 10.5 mph 65 % 0 in
18:57 60.8 °F 48.9 °F 29.9 in West 4.3 mph 10.1 mph 65 % 0 in
19:02 60.8 °F 49.3 °F 29.9 in WSW 3.4 mph 10.1 mph 66 % 0 in
19:07 60.8 °F 48.9 °F 29.9 in West 8.1 mph 8.7 mph 65 % 0 in
19:12 60.4 °F 48.2 °F 29.9 in WSW 4.9 mph 8.7 mph 64 % 0 in
19:18 60.1 °F 48.2 °F 29.9 in West 4.3 mph 8.1 mph 65 % 0 in
19:23 59.9 °F 48 °F 29.9 in West 3.1 mph 8.1 mph 65 % 0 in
19:28 59.5 °F 48 °F 29.9 in West 5.4 mph 6 mph 66 % 0 in
19:33 59.5 °F 48 °F 29.9 in Calm   6 mph 66 % 0 in
19:38 59.4 °F 48 °F 29.9 in West 3.8 mph 4.5 mph 66 % 0 in
19:43 59 °F 47.7 °F 29.9 in Calm   4.5 mph 66 % 0 in
19:48 58.6 °F 47.3 °F 29.9 in Calm   3.4 mph 66 % 0 in
19:53 58.1 °F 47.1 °F 29.9 in Calm   0.9 mph 67 % 0 in
19:58 57.6 °F 46.8 °F 29.9 in Calm   0.9 mph 67 % 0 in
20:03 57.4 °F 46.6 °F 29.9 in Calm     67 % 0 in
20:08 56.8 °F 46.4 °F 29.9 in Calm     68 % 0 in
20:13 56.3 °F 46.2 °F 29.9 in Calm   1.1 mph 69 % 0 in
20:18 55.8 °F 45.9 °F 29.9 in Calm   1.1 mph 69 % 0 in
20:23 55.2 °F 45.3 °F 29.9 in Calm   19.9 mph 69 % 0 in
20:28 54.9 °F 45.1 °F 29.9 in Calm   19.9 mph 70 % 0 in
20:33 54 °F 44.4 °F 29.9 in Calm     70 % 0 in
20:34 54 °F 44.2 °F 29.9 in Calm     70 % 0 in
20:39 53.2 °F 44.2 °F 29.9 in Calm     71 % 0 in
20:44 52.9 °F 44.1 °F 29.9 in Calm     72 % 0 in
20:49 52.3 °F 43.9 °F 29.9 in Calm     73 % 0 in
20:54 52 °F 43.5 °F 29.9 in Calm     73 % 0 in
20:59 51.4 °F 43.3 °F 29.9 in Calm     74 % 0 in
21:04 51.3 °F 43.5 °F 29.9 in Calm     75 % 0 in
21:09 50.7 °F 43.3 °F 29.9 in Calm     76 % 0 in
21:14 50.4 °F 43.3 °F 29.9 in Calm     77 % 0 in
21:19 50.2 °F 43.5 °F 29.9 in Calm     78 % 0 in
21:24 50 °F 43.3 °F 29.9 in Calm     78 % 0 in
21:29 49.8 °F 43.5 °F 29.9 in Calm     79 % 0 in
21:34 49.8 °F 43.9 °F 29.9 in Calm     80 % 0 in
21:39 49.6 °F 44.1 °F 29.9 in Calm     81 % 0 in
21:44 49.5 °F 44.2 °F 29.9 in Calm     82 % 0 in
21:49 49.3 °F 44.1 °F 29.9 in Calm     82 % 0 in
21:54 49.3 °F 44.1 °F 29.9 in Calm     82 % 0 in
21:59 49.1 °F 44.2 °F 29.9 in Calm     83 % 0 in
22:04 48.9 °F 44.1 °F 29.9 in Calm     83 % 0 in
22:09 48.9 °F 44.2 °F 29.9 in Calm     84 % 0 in
22:14 48.9 °F 44.2 °F 29.9 in Calm     84 % 0 in
22:19 48.9 °F 44.2 °F 29.9 in Calm     84 % 0 in
22:24 48.9 °F 44.6 °F 29.9 in Calm     85 % 0 in
22:29 48.7 °F 44.4 °F 29.9 in Calm     85 % 0 in
22:34 48.6 °F 44.2 °F 29.9 in Calm     85 % 0 in
22:39 48.6 °F 44.2 °F 29.9 in Calm     85 % 0 in
22:44 48.4 °F 44.4 °F 29.9 in ESE 1.1 mph 1.1 mph 86 % 0 in
22:50 48.4 °F 44.4 °F 29.9 in Calm   1.1 mph 86 % 0 in
22:55 48.4 °F 44.8 °F 29.9 in Calm   1.1 mph 87 % 0 in
23:00 48.4 °F 44.8 °F 29.9 in Calm     87 % 0 in
23:05 48 °F 44.4 °F 29.9 in Calm     87 % 0 in
23:10 48 °F 44.4 °F 29.9 in Calm     87 % 0 in
23:15 47.8 °F 44.2 °F 29.9 in Calm     87 % 0 in
23:20 47.8 °F 44.2 °F 29.9 in Calm     87 % 0 in
23:25 47.7 °F 44.2 °F 29.9 in Calm     88 % 0 in
23:30 47.7 °F 44.2 °F 29.9 in Calm     88 % 0 in
23:35 47.7 °F 44.2 °F 29.9 in Calm   2 mph 88 % 0 in
23:40 47.7 °F 44.6 °F 29.9 in Calm   2 mph 89 % 0 in
23:45 47.8 °F 44.8 °F 29.9 in Calm   1.6 mph 89 % 0 in
23:50 47.8 °F 44.8 °F 29.9 in Calm   1.1 mph 89 % 0 in
23:55 47.8 °F 45.1 °F 29.9 in East 0.9 mph 2.5 mph 90 % 0 in
Le Gheer Warneton
Courtoisie de Weather Underground - 2.5 mb

Mise a jour : 17-12-17 03:05:15
Généré par Cumulus 1.9.4 (1099)